Bar Harbor, ME

9:27 AM EST on December 17, 2017 (GMT -0500)
Hancock County-Bar Harbor

Weather History for KBHB - May, 2013

Change the Weather History Date:

Sunday, May 26, 2013

  Actual Average Record
Temperature  
Mean Temperature 46 °F -  
Max Temperature 50 °F 64 °F 84 °F (1977)
Min Temperature 42 °F 43 °F 35 °F (1949)
Degree Days  
Heating Degree Days 19    
Moisture  
Dew Point 46 °F    
Average Humidity 96    
Maximum Humidity 100    
Minimum Humidity 87    
Precipitation  
Precipitation 0.00 in - - ()
Sea Level Pressure  
Sea Level Pressure 29.74 in    
Wind  
Wind Speed 7 mph (SE)    
Max Wind Speed 12 mph    
Max Gust Speed -    
Visibility 8 miles    
Events      
Averages and records for this station are not official NWS values.
T = Trace of Precipitation, MM = Missing Value Source: NWS Daily Summary

Daily Weather History Graph

Daily Weather History Graph

Search for Another Location

Airport or City:

Trip Planner

Search our weather history database for the weather conditions in past years. The results will help you decide how hot, cold, wet, or windy it might be!

Date:

Astronomy

May. 26, 2013 Rise Set
Actual Time 4:55 AM EDT 8:05 PM EDT
Civil Twilight 4:20 AM EDT 8:41 PM EDT
Nautical Twilight 3:35 AM EDT 9:26 PM EDT
Astronomical Twilight 2:40 AM EDT 10:22 PM EDT
Moon 9:48 PM EDT (5/26) 6:21 AM EDT (5/26)
Length of Visible Light 16h 20m
Length of Day
15h 10m
Waning Gibbous, 97% of the Moon is Illuminated
May 26
Waning Gibbous
May 31
Last Quarter
Jun 8
New
Jun 16
First Quarter
Jun 23
Full

Hourly Weather History & Observations

Time (EDT) Temp. Windchill Dew Point Humidity Pressure Visibility Wind Dir Wind Speed Gust Speed Precip Events Conditions
12:15 AM 48.2 °F - 46.4 °F 93% 29.73 in 7.0 mi East 8.1 mph - N/A   Overcast
12:35 AM 48.2 °F - 46.4 °F 93% 29.73 in 9.0 mi East 6.9 mph - N/A   Overcast
12:55 AM 48.2 °F - 46.4 °F 93% 29.72 in 5.0 mi East 8.1 mph - N/A   Overcast
1:15 AM 48.2 °F - 46.4 °F 93% 29.70 in 8.0 mi East 9.2 mph - N/A   Overcast
1:35 AM 48.2 °F - 46.4 °F 93% 29.70 in 3.0 mi East 8.1 mph - N/A   Overcast
1:55 AM 48.2 °F - 46.4 °F 93% 29.69 in 5.0 mi East 5.8 mph - N/A   Overcast
2:15 AM 48.2 °F - 46.4 °F 93% 29.68 in 7.0 mi East 8.1 mph - N/A   Overcast
2:35 AM 48.2 °F - 46.4 °F 93% 29.67 in 8.0 mi East 5.8 mph - N/A   Overcast
2:55 AM 48.2 °F - 46.4 °F 93% 29.67 in 4.0 mi East 8.1 mph - N/A   Overcast
3:15 AM 48.2 °F - 46.4 °F 93% 29.66 in 5.0 mi East 8.1 mph - N/A   Overcast
3:35 AM 48.2 °F - 48.2 °F 100% 29.65 in 5.0 mi East 8.1 mph - N/A   Overcast
3:55 AM 48.2 °F - 48.2 °F 100% 29.65 in 9.0 mi East 9.2 mph - N/A   Overcast
4:15 AM 48.2 °F - 48.2 °F 100% 29.65 in 5.0 mi East 9.2 mph - N/A   Overcast
4:35 AM 48.2 °F - 48.2 °F 100% 29.64 in 3.0 mi ENE 8.1 mph - N/A   Overcast
4:55 AM 48.2 °F - 48.2 °F 100% 29.64 in 3.0 mi East 9.2 mph - N/A   Overcast
5:15 AM 48.2 °F - 48.2 °F 100% 29.64 in 2.0 mi East 10.4 mph - N/A   Overcast
5:35 AM 48.2 °F - 48.2 °F 100% 29.64 in 9.0 mi ESE 6.9 mph - N/A   Overcast
5:55 AM 48.2 °F - 48.2 °F 100% 29.65 in 6.0 mi SSE 10.4 mph - N/A   Overcast
6:15 AM 48.2 °F - 48.2 °F 100% 29.65 in 9.0 mi South 9.2 mph - N/A   Overcast
6:35 AM 46.4 °F 43.5 °F 46.4 °F 100% 29.66 in 8.0 mi South 5.8 mph - N/A   Overcast
6:55 AM 46.4 °F 42.4 °F 46.4 °F 100% 29.66 in 10.0 mi SSE 8.1 mph - N/A   Overcast
7:15 AM 46.4 °F 42.9 °F 46.4 °F 100% 29.67 in 10.0 mi South 6.9 mph - N/A   Overcast
7:35 AM 46.4 °F 41.9 °F 46.4 °F 100% 29.67 in 7.0 mi SSE 9.2 mph - N/A   Overcast
7:55 AM 48.2 °F - 46.4 °F 93% 29.67 in 10.0 mi SSE 9.2 mph - N/A   Overcast
8:15 AM 46.4 °F 41.1 °F 46.4 °F 100% 29.68 in 8.0 mi South 11.5 mph - N/A   Overcast
8:35 AM 46.4 °F 41.5 °F 46.4 °F 100% 29.69 in 10.0 mi South 10.4 mph - N/A   Overcast
8:55 AM 46.4 °F 42.4 °F 46.4 °F 100% 29.69 in 10.0 mi SSE 8.1 mph - N/A   Overcast
9:15 AM 46.4 °F 42.4 °F 46.4 °F 100% 29.69 in 10.0 mi SSE 8.1 mph - N/A   Overcast
9:35 AM 46.4 °F 42.4 °F 46.4 °F 100% 29.69 in 9.0 mi South 8.1 mph - N/A   Overcast
9:55 AM 48.2 °F - 46.4 °F 93% 29.69 in 10.0 mi SSE 9.2 mph - N/A   Overcast
10:15 AM 46.4 °F 41.9 °F 46.4 °F 100% 29.70 in 10.0 mi SSE 9.2 mph - N/A   Overcast
10:35 AM 48.2 °F - 46.4 °F 93% 29.70 in 10.0 mi SSE 11.5 mph - N/A   Overcast
10:56 AM 48.2 °F - 46.4 °F 93% 29.70 in 10.0 mi SSE 9.2 mph - N/A   Overcast
11:15 AM 48.2 °F - 46.4 °F 93% 29.70 in 10.0 mi SSE 9.2 mph - N/A   Overcast
11:35 AM 48.2 °F - 44.6 °F 87% 29.70 in 10.0 mi SSE 5.8 mph - N/A   Overcast
11:55 AM 48.2 °F - 44.6 °F 87% 29.70 in 10.0 mi South 6.9 mph - N/A   Overcast
12:15 PM 48.2 °F - 44.6 °F 87% 29.71 in 10.0 mi SE 5.8 mph - N/A   Overcast
12:35 PM 48.2 °F - 44.6 °F 87% 29.71 in 10.0 mi SE 5.8 mph - N/A   Overcast
12:55 PM 48.2 °F - 46.4 °F 93% 29.72 in 10.0 mi East 3.5 mph - N/A   Overcast
1:15 PM 46.4 °F 42.4 °F 46.4 °F 100% 29.72 in 2.5 mi East 8.1 mph - N/A   Overcast
1:35 PM 46.4 °F 43.5 °F 46.4 °F 100% 29.73 in 1.8 mi East 5.8 mph - N/A   Overcast
1:55 PM 46.4 °F 44.3 °F 46.4 °F 100% 29.72 in 3.0 mi East 4.6 mph - N/A   Overcast
2:15 PM 46.4 °F 43.5 °F 46.4 °F 100% 29.72 in 10.0 mi East 5.8 mph - N/A   Overcast
2:35 PM 46.4 °F 42.9 °F 46.4 °F 100% 29.72 in 10.0 mi East 6.9 mph - N/A   Overcast
2:55 PM 48.2 °F - 46.4 °F 93% 29.73 in 10.0 mi East 4.6 mph - N/A   Overcast
3:15 PM 48.2 °F - 46.4 °F 93% 29.73 in 10.0 mi Calm Calm - N/A   Overcast
3:35 PM 48.2 °F - 44.6 °F 87% 29.74 in 10.0 mi ENE 3.5 mph - N/A   Overcast
3:55 PM 48.2 °F - 46.4 °F 93% 29.74 in 10.0 mi East 3.5 mph - N/A   Overcast
4:15 PM 48.2 °F - 46.4 °F 93% 29.75 in 10.0 mi Calm Calm - N/A   Overcast
4:35 PM 48.2 °F - 46.4 °F 93% 29.76 in 10.0 mi Calm Calm - N/A   Overcast
4:55 PM 48.2 °F - 46.4 °F 93% 29.76 in 9.0 mi Calm Calm - N/A   Overcast
5:16 PM 48.2 °F - 46.4 °F 93% 29.77 in 10.0 mi SW 3.5 mph - N/A   Overcast
5:35 PM 48.2 °F - 48.2 °F 100% 29.77 in 7.0 mi Calm Calm - N/A   Overcast
5:55 PM 48.2 °F - 48.2 °F 100% 29.78 in 10.0 mi SW 3.5 mph - N/A   Overcast
6:15 PM 48.2 °F - 46.4 °F 93% 29.79 in 8.0 mi SW 4.6 mph - N/A   Overcast
6:35 PM 48.2 °F - 48.2 °F 100% 29.80 in 4.0 mi NW 5.8 mph - N/A   Overcast
6:55 PM 50.0 °F - 48.2 °F 94% 29.80 in 10.0 mi NW 8.1 mph - N/A   Overcast
7:15 PM 50.0 °F - 48.2 °F 94% 29.81 in 10.0 mi NW 5.8 mph - N/A   Overcast
7:35 PM 48.2 °F - 48.2 °F 100% 29.82 in 10.0 mi WNW 8.1 mph - N/A   Mostly Cloudy
7:56 PM 48.2 °F - 48.2 °F 100% 29.83 in 10.0 mi WNW 3.5 mph - N/A   Mostly Cloudy
8:15 PM 48.2 °F - 48.2 °F 100% 29.84 in 10.0 mi WNW 4.6 mph - N/A   Overcast
8:35 PM 48.2 °F - 48.2 °F 100% 29.84 in 10.0 mi WNW 6.9 mph - N/A   Mostly Cloudy
8:55 PM 48.2 °F - 46.4 °F 93% 29.85 in 10.0 mi WNW 8.1 mph - N/A   Overcast
9:15 PM 48.2 °F - 44.6 °F 87% 29.87 in 10.0 mi WNW 8.1 mph - N/A   Overcast
9:35 PM 46.4 °F 42.9 °F 44.6 °F 93% 29.88 in 10.0 mi WNW 6.9 mph - N/A   Overcast
9:55 PM 46.4 °F 43.5 °F 44.6 °F 93% 29.88 in 10.0 mi WNW 5.8 mph - N/A   Scattered Clouds
10:15 PM 46.4 °F 45.2 °F 42.8 °F 87% 29.89 in 10.0 mi WNW 3.5 mph - N/A   Partly Cloudy
10:35 PM 44.6 °F 42.2 °F 42.8 °F 93% 29.90 in 10.0 mi West 4.6 mph - N/A   Scattered Clouds
10:55 PM 44.6 °F - 42.8 °F 93% 29.91 in 10.0 mi Calm Calm - N/A   Overcast
11:15 PM 44.6 °F - 42.8 °F 93% 29.90 in 10.0 mi Calm Calm - N/A   Partly Cloudy
11:35 PM 42.8 °F 41.1 °F 42.8 °F 100% 29.91 in 10.0 mi WSW 3.5 mph - N/A   Clear
11:55 PM 44.6 °F 43.1 °F 42.8 °F 93% 29.91 in 10.0 mi West 3.5 mph - N/A   Clear